Khon Kaen, Thailand

5:45 PM +07 on December 11, 2017 (GMT +0700)
Khon Kaen

Weather History for VTUK - October, 2013

Change the Weather History Date:

Tuesday, October 15, 2013

  Actual Average Record
Temperature  
Mean Temperature 82 °F -  
Max Temperature 90 °F 88 °F - ()
Min Temperature 75 °F 70 °F - ()
Cooling Degree Days 18    
Growing Degree Days 32 (Base 50)    
Moisture  
Dew Point 74 °F    
Average Humidity 77    
Maximum Humidity 100    
Minimum Humidity 50    
Precipitation  
Precipitation T in 0.08 in - ()
Sea Level Pressure  
Sea Level Pressure 29.72 in    
Wind  
Wind Speed 6 mph ()    
Max Wind Speed 13 mph    
Max Gust Speed -    
Visibility 4.5 miles    
Events      
T = Trace of Precipitation, MM = Missing Value Source: Averaged Metar Reports

Daily Weather History Graph

Daily Weather History Graph

Search for Another Location

Airport or City:

Trip Planner

Search our weather history database for the weather conditions in past years. The results will help you decide how hot, cold, wet, or windy it might be!

Date:

Astronomy

Oct. 15, 2013 Rise Set
Actual Time 6:01 AM +07 5:47 PM +07
Civil Twilight 5:39 AM +07 6:09 PM +07
Nautical Twilight 5:14 AM +07 6:34 PM +07
Astronomical Twilight 4:49 AM +07 6:59 PM +07
Moon 3:04 PM +07 (10/15) 2:23 AM +07 (10/15)
Length of Visible Light 12h 30m
Length of Day
11h 46m
Waxing Gibbous, 84% of the Moon is Illuminated
Oct 15
Waxing Gibbous
Oct 19
Full
Oct 27
Last Quarter
Nov 3
New
Nov 10
First Quarter

Hourly Weather History & Observations

Time (+07) Temp. Heat Index Dew Point Humidity Pressure Visibility Wind Dir Wind Speed Gust Speed Precip Events Conditions
1:00 AM 76 °F - 72 °F 86% 29.75 in 5 mi West 4.6 mph - -   Mist
2:00 AM 75.2 °F - 75.2 °F 100% 29.74 in 5.0 mi WNW 4.6 mph - N/A   Unknown
3:00 AM 75.2 °F - 75.2 °F 100% 29.74 in 5.0 mi WNW 4.6 mph - N/A   Unknown
4:00 AM 77.0 °F - 75.2 °F 94% 29.74 in 5.0 mi NNW 4.6 mph - N/A   Unknown
6:00 AM 75.2 °F - 75.2 °F 100% 29.75 in 3.1 mi WNW 3.5 mph - N/A   Mostly Cloudy
7:00 AM 77 °F - 74 °F 90% 29.75 in 3 mi West 4.6 mph - -   Mist
7:00 AM 77.0 °F - 77.0 °F 100% 29.78 in 3.1 mi West 4.6 mph - N/A   Mostly Cloudy
8:00 AM 77.0 °F - 77.0 °F 100% 29.79 in 3.7 mi WNW 5.8 mph - N/A   Overcast
9:00 AM 82.4 °F 90.9 °F 77.0 °F 84% 29.77 in 3.1 mi WNW 8.1 mph - N/A   Mostly Cloudy
10:00 AM 84.2 °F 92.3 °F 75.2 °F 74% 29.80 in 3.7 mi NNW 9.2 mph - N/A   Mostly Cloudy
11:00 AM 87.8 °F 97.6 °F 75.2 °F 66% 29.77 in 4.3 mi North 10.4 mph - N/A   Mostly Cloudy
12:00 PM 87.8 °F 99.7 °F 77.0 °F 70% 29.74 in 5.6 mi North 8.1 mph - N/A   Mostly Cloudy
1:00 PM 88 °F - 72 °F 50% 29.70 in 5 mi NNE 10.4 mph - -   Haze
1:00 PM 87.8 °F 93.8 °F 71.6 °F 58% 29.71 in 5.6 mi North 12.7 mph - N/A   Mostly Cloudy
2:00 PM 87.8 °F 95.6 °F 73.4 °F 62% 29.68 in 5.0 mi North 10.4 mph - N/A   Mostly Cloudy
3:00 PM 87.8 °F 93.8 °F 71.6 °F 58% 29.68 in 5.0 mi North 11.5 mph - N/A   Mostly Cloudy
4:00 PM 86.0 °F 91.8 °F 71.6 °F 62% 29.68 in 5.0 mi NNE 10.4 mph - N/A   Overcast
5:00 PM 86.0 °F 91.8 °F 71.6 °F 62% 29.65 in 5.0 mi North 6.9 mph - N/A   Overcast
6:00 PM 82.4 °F 87.2 °F 71.6 °F 70% 29.68 in 4.3 mi NNW 4.6 mph - N/A   Overcast
7:00 PM 83 °F - 70 °F 57% 29.66 in 5 mi NNW 4.6 mph - -   Mist
7:00 PM 82.4 °F 88.2 °F 73.4 °F 74% 29.68 in 4.3 mi North 4.6 mph - N/A   Overcast
8:00 PM 82.4 °F 88.2 °F 73.4 °F 74% 29.71 in 5.0 mi North 6.9 mph - N/A   Overcast
9:00 PM 82.4 °F 89.5 °F 75.2 °F 79% 29.71 in 5.0 mi North 5.8 mph - N/A   Overcast